N4BBA Weather Reports


time (UTC)temp
C
wind
direction
speed
KPH
gust
KPH
rain 1hr
cm
rain 24hr
cm
rain mn
cm
humidity
%
barometer
mb
20260503010151 10 123 0.0 0.0 0.00 1.19 1.19 96 1012.3
20260503005648 10 120 0.0 0.0 0.00 1.19 1.19 96 1012.4
20260503005145 10 114 0.0 0.0 0.00 1.19 1.19 96 1012.3
20260503004641 10 109 0.0 0.0 0.00 1.19 1.19 96 1012.2
20260503004140 10 107 0.0 0.0 0.00 1.19 1.19 96 1012.3
20260503003637 10 106 0.0 0.0 0.00 1.19 1.19 96 1012.1
20260503003134 11 101 0.0 0.0 0.00 1.19 1.19 96 1012.0
20260503002631 11 107 0.0 0.0 0.00 1.19 1.19 96 1012.1
20260503002127 11 102 0.0 0.0 0.00 1.19 1.19 95 1012.0
20260503001623 11 106 0.0 0.0 0.00 1.19 1.19 95 1011.8
20260503001120 11 106 0.0 0.0 0.00 1.19 1.19 95 1011.8
20260503000618 11 106 0.0 0.0 0.00 1.19 1.19 95 1011.8
20260503000115 11 106 0.0 0.0 0.00 1.19 1.19 95 1011.8
20260502235611 11 106 0.0 0.0 0.00 1.19 1.19 95 1011.5
20260502235110 11 106 0.0 0.0 0.00 1.19 1.19 95 1011.7
20260502234605 11 98 0.0 0.0 0.00 1.19 1.19 95 1011.6
20260502234103 11 105 0.0 0.0 0.00 1.19 1.19 95 1011.6
20260502233603 11 106 0.0 0.0 0.00 1.19 1.19 95 1011.3
20260502233101 11 105 0.0 0.0 0.00 1.19 1.19 95 1011.2
20260502232556 11 111 0.0 0.0 0.00 1.19 1.19 95 1011.1
20260502232054 11 257 0.0 0.0 0.00 1.19 1.19 95 1011.3
20260502231551 11 257 0.0 0.0 0.00 1.19 1.19 94 1011.2
20260502231049 11 114 0.0 0.0 0.00 1.19 1.19 94 1011.2
20260502230547 11 113 0.0 0.0 0.00 1.19 1.19 94 1011.3
20260502230045 11 118 0.0 0.0 0.00 1.19 1.19 94 1011.3
20260502225540 11 114 0.0 0.0 0.00 1.19 1.19 94 1011.3
20260502225038 11 107 0.0 0.0 0.00 1.19 1.19 95 1011.4
20260502224534 12 109 0.0 0.0 0.00 1.19 1.19 95 1011.4
20260502224031 11 109 0.0 0.0 0.00 1.19 1.19 94 1011.3
20260502223529 11 107 0.0 0.0 0.00 1.19 1.19 94 1011.2
20260502223027 12 107 0.0 0.0 0.00 1.19 1.19 94 1011.2
20260502222524 11 109 0.0 0.0 0.00 1.19 1.19 94 1011.2
20260502222020 12 107 0.0 0.0 0.00 1.19 1.19 94 1011.2
20260502221515 12 108 0.0 0.0 0.00 1.19 1.19 94 1011.2
20260502221013 12 109 0.0 1.6 0.00 1.19 1.19 94 1011.0
20260502220508 12 100 0.0 1.6 0.00 1.19 1.19 94 1011.3
20260502220005 11 127 0.0 0.0 0.18 1.19 1.19 94 1011.1
20260502215503 11 112 0.0 0.0 0.00 1.17 1.17 94 1011.0
20260502214959 11 117 1.6 1.6 0.00 1.17 1.17 94 1011.0
20260502214456 12 95 0.0 0.0 0.00 1.17 1.17 95 1010.9
20260502213954 12 136 0.0 1.6 0.00 1.17 1.17 95 1011.0
20260502213450 12 107 0.0 0.0 0.13 1.17 1.17 95 1010.7
20260502212949 11 118 1.6 1.6 0.13 1.17 1.17 95 1011.2
20260502212447 12 94 0.0 1.6 0.00 1.14 1.14 95 1011.0
20260502211944 12 106 0.0 1.6 0.00 1.14 1.14 95 1011.1
20260502211440 12 78 1.6 3.2 0.18 1.14 1.14 95 1011.1
20260502210938 12 120 1.6 3.2 0.18 1.14 1.14 95 1011.1
20260502210434 12 92 0.0 0.0 0.00 1.12 1.12 95 1011.0
20260502205931 12 110 0.0 0.0 0.00 1.12 1.12 95 1011.3
20260502205427 12 65 1.6 1.6 0.13 1.12 1.12 95 1011.1
20260502204925 12 66 1.6 1.6 0.13 1.12 1.12 95 1011.0
20260502204422 12 119 0.0 0.0 0.00 1.09 1.09 95 1011.2
20260502203920 12 89 0.0 1.6 0.00 1.09 1.09 95 1011.3
20260502203417 12 113 1.6 3.2 0.18 1.09 1.09 95 1011.0
20260502202912 12 104 0.0 0.0 0.18 1.09 1.09 96 1011.1
20260502202410 12 121 0.0 0.0 0.00 1.07 1.07 95 1011.0
20260502201908 11 106 0.0 1.6 0.18 1.07 1.07 95 1010.8
20260502201403 12 116 0.0 1.6 0.18 1.07 1.07 96 1011.2
20260502200900 12 117 0.0 0.0 0.00 1.04 1.04 96 1011.2
20260502200355 11 97 0.0 0.0 0.00 1.04 1.04 95 1011.1
20260502195854 11 70 0.0 0.0 0.00 1.04 1.04 96 1011.1
20260502195350 11 275 4.8 4.8 0.13 1.04 1.04 96 1011.2
20260502194847 11 93 1.6 4.8 0.00 1.02 1.02 96 1011.3
20260502194344 12 107 0.0 0.0 0.00 1.02 1.02 96 1011.1
20260502193840 12 84 1.6 3.2 0.00 1.02 1.02 96 1011.3
20260502193337 12 84 1.6 1.6 0.18 1.02 1.02 96 1011.3
20260502192833 12 102 0.0 1.6 0.18 1.02 1.02 96 1011.3
20260502192330 12 104 0.0 0.0 0.00 0.99 0.99 96 1011.6
20260502191827 11 107 0.0 0.0 0.00 0.99 0.99 96 1011.6
20260502191325 11 149 3.2 4.8 0.00 0.99 0.99 96 1011.6
20260502190822 11 101 0.0 1.6 0.13 0.99 0.99 96 1011.8
20260502190319 11 152 1.6 3.2 0.13 0.99 0.99 96 1011.7
20260502185815 11 174 1.6 1.6 0.00 0.97 0.97 96 1011.7
20260502185311 11 113 0.0 1.6 0.00 0.97 0.97 96 1011.8
20260502184808 11 125 3.2 6.4 0.18 0.97 0.97 96 1011.7
20260502184303 11 80 0.0 3.2 0.18 0.97 0.97 96 1011.5
20260502183800 11 24 1.6 1.6 0.00 0.94 0.94 96 1011.4
20260502183256 11 13 1.6 4.8 0.13 0.94 0.94 96 1011.6
20260502182752 11 69 3.2 6.4 0.13 0.94 0.94 96 1011.3
20260502182247 11 282 0.0 3.2 0.18 0.91 0.91 96 1011.7
20260502181744 11 104 1.6 9.7 0.18 0.91 0.91 96 1012.0
20260502181243 12 119 1.6 3.2 0.00 0.89 0.89 96 1012.1
20260502180740 12 273 3.2 3.2 0.13 0.89 0.89 96 1012.0
20260502180238 12 113 0.0 1.6 0.13 0.89 0.89 96 1011.8
20260502170202 11 353 3.2 4.8 0.18 0.76 0.76 97 1011.9
20260502164149 11 115 3.2 9.7 0.13 0.71 0.71 97 1012.3
20260502163644 11 105 0.0 1.6 0.13 0.71 0.71 97 1012.5
20260502163141 11 106 0.0 1.6 0.18 0.69 0.69 97 1012.8
20260502162638 11 110 0.0 0.0 0.18 0.69 0.69 97 1012.9
20260502162135 11 142 0.0 0.0 0.00 0.66 0.66 97 1012.9
20260502161632 11 121 0.0 0.0 0.13 0.66 0.66 97 1012.9
20260502161129 11 106 0.0 0.0 0.13 0.66 0.66 97 1013.0
20260502160627 11 96 0.0 1.6 0.00 0.64 0.64 97 1013.2
20260502160125 11 104 0.0 1.6 0.18 0.64 0.64 97 1013.1
20260502152039 11 336 6.4 9.7 0.13 0.56 0.56 97 1012.3
20260502151536 12 84 1.6 3.2 0.00 0.53 0.53 97 1012.4
20260502151034 11 46 1.6 9.7 0.18 0.53 0.53 97 1012.3
20260502150531 12 85 1.6 6.4 0.18 0.53 0.53 97 1012.4
20260502130416 11 97 1.6 4.8 0.13 0.33 0.33 96 1011.8
20260502123359 11 273 0.0 3.2 0.00 0.25 0.25 96 1011.3
20260502122856 11 102 0.0 1.6 0.18 0.25 0.25 96 1011.4
20260502122352 11 78 0.0 3.2 0.18 0.25 0.25 96 1011.3
20260502121850 11 50 1.6 1.6 0.13 0.23 0.23 96 1011.4
20260502121347 11 107 1.6 3.2 0.13 0.23 0.23 96 1011.3
20260502120845 11 97 0.0 1.6 0.00 0.20 0.20 95 1011.1
20260502120340 11 98 0.0 4.8 0.18 0.20 0.20 96 1011.1
20260502115838 11 70 1.6 3.2 0.18 0.20 0.20 95 1011.2
20260502115335 11 81 1.6 3.2 0.13 0.18 0.18 95 1011.1
20260502114831 11 339 4.8 4.8 0.13 0.18 0.18 95 1011.3
20260502114329 11 83 1.6 6.4 0.00 0.15 0.15 95 1011.3
20260502113825 11 122 1.6 6.4 0.18 0.15 0.15 95 1011.3
20260502113323 11 340 3.2 3.2 0.00 0.13 0.13 95 1011.3
20260502112821 11 193 3.2 4.8 0.18 0.13 0.13 95 1011.2
20260502112318 11 354 3.2 3.2 0.18 0.13 0.13 95 1011.3
20260502111815 11 74 0.0 3.2 0.00 0.10 0.10 95 1011.5
20260502111313 11 359 4.8 6.4 0.13 0.10 0.10 95 1011.5
20260502110810 11 48 1.6 4.8 0.13 0.10 0.10 95 1011.3
20260502110308 11 81 1.6 1.6 0.18 0.08 0.08 95 1011.4
20260502105806 11 75 0.0 3.2 0.18 0.08 0.08 95 1011.6
20260502105305 11 108 0.0 1.6 0.00 0.05 0.05 95 1011.5
20260502104800 11 119 0.0 3.2 0.13 0.05 0.05 95 1011.4
20260502104257 11 196 1.6 3.2 0.13 0.05 0.05 95 1011.6
20260502103754 11 141 0.0 0.0 0.00 0.03 0.03 95 1011.6
20260502103252 11 109 0.0 0.0 0.18 0.03 0.03 95 1011.5
20260502102749 11 115 0.0 0.0 0.18 0.03 0.03 95 1011.6
20260502102245 11 268 1.6 3.2 0.00 0.00 0.00 95 1011.3
20260502101743 11 101 0.0 1.6 0.00 0.00 0.00 95 1011.6
20260502101241 11 99 1.6 3.2 0.00 0.00 0.00 95 1011.6
20260502100739 11 65 3.2 4.8 0.00 0.00 0.00 95 1011.3
20260502100238 11 35 1.6 3.2 0.00 0.00 0.00 95 1011.5
20260502091211 11 119 0.0 1.6 0.00 0.00 0.00 96 1011.4
20260502090709 11 106 0.0 0.0 0.00 0.00 0.00 96 1011.2
20260502090206 11 104 0.0 0.0 0.00 0.00 0.00 96 1011.3
20260502071107 11 105 0.0 0.0 0.00 0.00 0.00 96 1010.8
20260502070605 11 105 0.0 0.0 0.00 0.00 0.00 96 1010.8
20260502065601 11 104 0.0 0.0 0.00 0.00 0.00 96 1011.0
20260502065058 11 104 0.0 0.0 0.00 0.00 0.00 96 1011.1
20260502064557 11 99 0.0 0.0 0.00 0.00 0.00 96 1011.1
20260502064054 11 101 0.0 0.0 0.00 0.00 0.00 96 1011.0
20260502063551 11 107 0.0 0.0 0.00 0.00 0.00 96 1010.9
20260502063049 11 106 0.0 0.0 0.00 0.00 0.00 96 1011.0
20260502062546 11 101 0.0 0.0 0.00 0.00 0.00 96 1010.9
20260502062044 11 108 0.0 0.0 0.00 0.00 0.00 96 1011.2
20260502061542 11 108 0.0 0.0 0.00 0.00 0.00 96 1011.2
20260502061038 11 108 0.0 0.0 0.00 0.00 0.00 96 1011.3
20260502060533 11 108 0.0 0.0 0.00 0.00 0.00 96 1011.2
20260502060031 11 108 0.0 0.0 0.00 0.00 0.00 96 1011.4
20260502055528 11 108 0.0 0.0 0.00 0.00 0.00 96 1011.6
20260502055027 11 111 0.0 0.0 0.00 0.00 0.00 96 1011.5
20260502054525 10 117 0.0 0.0 0.00 0.00 0.00 95 1011.6
20260502054021 10 131 0.0 0.0 0.00 0.00 0.00 95 1011.7
20260502053518 10 107 0.0 0.0 0.00 0.00 0.00 95 1011.5
20260502053017 10 105 0.0 0.0 0.00 0.00 0.00 95 1011.6
20260502052515 10 104 0.0 0.0 0.00 0.00 0.00 95 1011.6
20260502052013 10 105 0.0 0.0 0.00 0.00 0.00 95 1011.7
20260502051510 10 111 0.0 0.0 0.00 0.00 0.00 95 1011.9
20260502051007 10 107 0.0 0.0 0.00 0.00 0.00 95 1011.9
20260502050504 10 107 0.0 0.0 0.00 0.00 0.00 95 1011.9
20260502050001 10 107 0.0 0.0 0.00 0.00 0.00 95 1011.9
20260502045457 10 107 0.0 0.0 0.00 0.00 0.00 95 1012.0
20260502044955 10 107 0.0 0.0 0.00 0.00 0.00 95 1012.0
20260502044450 10 106 0.0 0.0 0.00 0.00 0.00 95 1012.1
20260502043947 10 107 0.0 0.0 0.00 0.00 0.00 95 1011.7
20260502043445 10 107 0.0 0.0 0.00 0.00 0.00 95 1012.2
20260502042944 10 107 0.0 0.0 0.00 0.00 0.00 95 1012.1
20260502042442 10 107 0.0 0.0 0.00 0.00 0.00 95 1012.3
20260502041939 10 107 0.0 0.0 0.00 0.00 0.00 95 1012.1
20260502041437 10 106 0.0 0.0 0.00 0.00 0.00 95 1012.3
20260502040933 10 106 0.0 0.0 0.00 0.00 0.00 94 1012.0
20260502040430 10 109 0.0 0.0 0.00 0.00 0.00 94 1012.0
20260502035926 10 111 0.0 0.0 0.00 0.08 0.08 94 1012.1
20260502035423 10 104 0.0 0.0 0.00 0.08 0.08 94 1012.0
20260502034921 10 107 0.0 0.0 0.00 0.08 0.08 94 1012.2
20260502034419 10 107 0.0 0.0 0.00 0.08 0.08 94 1012.2
20260502033917 10 105 0.0 0.0 0.00 0.08 0.08 94 1012.3
20260502033414 10 104 0.0 0.0 0.00 0.08 0.08 94 1012.4
20260502032911 10 107 0.0 0.0 0.00 0.08 0.08 94 1012.5
20260502032407 10 107 0.0 0.0 0.00 0.08 0.08 94 1012.5
20260502031904 10 103 0.0 0.0 0.00 0.08 0.08 94 1012.3
20260502031403 10 105 0.0 0.0 0.00 0.08 0.08 94 1012.7
20260502030901 10 104 0.0 0.0 0.00 0.08 0.08 93 1012.7
20260502030359 10 106 0.0 0.0 0.00 0.08 0.08 93 1012.7
20260502025856 10 112 0.0 0.0 0.00 0.08 0.08 93 1012.6
20260502025353 10 112 0.0 0.0 0.00 0.08 0.08 93 1012.7
20260502024851 10 112 0.0 0.0 0.00 0.08 0.08 93 1012.7
20260502024348 10 112 0.0 0.0 0.00 0.08 0.08 93 1012.9
20260502023846 10 112 0.0 0.0 0.00 0.08 0.08 93 1012.9
20260502023344 10 111 0.0 0.0 0.00 0.08 0.08 93 1012.7
20260502022841 10 103 0.0 0.0 0.00 0.08 0.08 93 1012.8
20260502022337 10 98 0.0 0.0 0.00 0.08 0.08 92 1012.8
20260502021834 10 86 0.0 0.0 0.00 0.08 0.08 92 1012.7
20260502021332 10 125 0.0 0.0 0.00 0.08 0.08 92 1012.5
20260502020829 10 120 0.0 0.0 0.00 0.08 0.08 92 1012.8
20260502020327 10 120 0.0 0.0 0.00 0.08 0.08 92 1012.9
20260502015823 10 120 0.0 0.0 0.00 0.08 0.08 92 1012.8
20260502015320 10 105 0.0 0.0 0.00 0.08 0.08 92 1012.8
20260502014818 10 105 0.0 0.0 0.00 0.08 0.08 91 1012.8
20260502014315 10 109 0.0 0.0 0.00 0.08 0.08 91 1012.6
20260502013811 10 109 0.0 0.0 0.00 0.08 0.08 91 1012.9
20260502013307 10 109 0.0 0.0 0.00 0.08 0.08 91 1012.8
20260502012803 10 104 0.0 0.0 0.00 0.08 0.08 91 1012.8
20260502012301 10 104 0.0 0.0 0.00 0.08 0.08 90 1012.8
20260502011758 10 103 0.0 0.0 0.00 0.08 0.08 90 1012.7
20260502011254 10 103 0.0 0.0 0.00 0.08 0.08 90 1012.6
20260502010751 10 98 0.0 1.6 0.00 0.08 0.08 90 1012.4
20260502010247 11 95 1.6 1.6 0.00 0.08 0.08 89 1012.3